Weather History for Seward, AK

Change the Weather History Date:

Tuesday, January 22, 2013

  Actual Average Record
Temperature  
Mean Temperature 36 °F -  
Max Temperature 37 °F 31 °F 45 °F (1987)
Min Temperature 34 °F 22 °F -6 °F (1973)
Degree Days  
Heating Degree Days 30    
Moisture  
Dew Point 35 °F    
Average Humidity 97    
Maximum Humidity 100    
Minimum Humidity 93    
Precipitation  
Precipitation 0.07 in - - ()
Sea Level Pressure  
Sea Level Pressure 29.50 in    
Wind  
Wind Speed 2 mph (North)    
Max Wind Speed 6 mph    
Max Gust Speed -    
Visibility 8 miles    
Events Rain    
Averages and records for this station are not official NWS values.
T = Trace of Precipitation, MM = Missing Value Source: NWS Daily Summary

Daily Weather History Graph

Daily Weather History Graph

Search for Another Location

Airport:

Trip Planner

Search our weather history database for the weather conditions in past years. The results will help you decide how hot, cold, wet, or windy it might be!

Date:

Astronomy

Jan. 22, 2013 Rise Set
Actual Time 9:32 AM AKST 4:46 PM AKST
Civil Twilight 8:42 AM AKST 5:37 PM AKST
Nautical Twilight 7:49 AM AKST 6:30 PM AKST
Astronomical Twilight 7:00 AM AKST 7:19 PM AKST
Moon 1:02 PM AKST (1/22) 6:16 AM AKST (1/22)
Length of Visible Light 8h 55m
Length of Day
7h 13m
Waxing Gibbous, 84% of the Moon is Illuminated
Jan 22
Waxing Gibbous
Jan 26
Full
Feb 3
Last Quarter
Feb 9
New
Feb 17
First Quarter

Hourly Weather History & Observations

Time (AKST) Temp. Windchill Dew Point Humidity Pressure Visibility Wind Dir Wind Speed Gust Speed Precip Events Conditions
12:53 AM 35.1 °F - 34.0 °F 96% 29.65 in 6.0 mi Calm Calm - N/A   Overcast
1:53 AM 35.1 °F 32.2 °F 34.0 °F 96% 29.63 in 10.0 mi North 3.5 mph - N/A   Overcast
3:53 AM 36.0 °F - 34.0 °F 93% 29.60 in 10.0 mi Calm Calm - N/A   Overcast
4:53 AM 34.0 °F - 34.0 °F 100% 29.59 in 10.0 mi Calm Calm - N/A   Overcast
5:53 AM 35.1 °F 30.1 °F 34.0 °F 96% 29.57 in 10.0 mi North 5.8 mph - N/A   Overcast
6:53 AM 35.1 °F - 34.0 °F 96% 29.56 in 10.0 mi Calm Calm - 0.00 in   Overcast
7:53 AM 34.0 °F 31.0 °F 33.1 °F 96% 29.55 in 10.0 mi WNW 3.5 mph - 0.01 in Rain Light Rain
8:53 AM 34.0 °F - 33.1 °F 96% 29.57 in 5.0 mi Calm Calm - 0.02 in Rain Light Rain
9:53 AM 34.0 °F 29.8 °F 34.0 °F 100% 29.56 in 7.0 mi NNW 4.6 mph - 0.01 in   Overcast
10:51 AM 35.6 °F 32.8 °F 33.8 °F 93% 29.56 in 2.5 mi ENE 3.5 mph - 0.02 in Rain Light Rain
10:53 AM 35.1 °F 32.2 °F 34.0 °F 96% 29.56 in 2.5 mi Variable 3.5 mph - 0.02 in Rain Light Rain
11:00 AM 35.6 °F 32.8 °F 33.8 °F 93% 29.56 in 3.0 mi North 3.5 mph - 0.00 in Rain Light Rain
11:53 AM 36.0 °F 32.1 °F 35.1 °F 97% 29.54 in 10.0 mi NNW 4.6 mph - 0.01 in   Overcast
12:53 PM 37.0 °F - 36.0 °F 96% 29.52 in 10.0 mi Calm Calm - N/A   Overcast
1:53 PM 36.0 °F - 35.1 °F 97% 29.49 in 8.0 mi Calm Calm - N/A   Overcast
2:53 PM 36.0 °F - 36.0 °F 100% 29.47 in 8.0 mi Calm Calm - N/A   Overcast
3:53 PM 36.0 °F - 35.1 °F 97% 29.45 in 6.0 mi Calm Calm - N/A   Overcast
4:02 PM 35.6 °F - 35.6 °F 100% 29.44 in 3.0 mi Calm Calm - N/A   Overcast
4:06 PM 35.6 °F - 35.6 °F 100% 29.45 in 1.5 mi Calm Calm - N/A   Overcast
4:20 PM 35.6 °F - 35.6 °F 100% 29.45 in 4.0 mi Calm Calm - N/A   Overcast
4:53 PM 36.0 °F 31.1 °F 36.0 °F 100% 29.44 in 10.0 mi SE 5.8 mph - N/A   Overcast
5:53 PM 36.0 °F - 35.1 °F 97% 29.43 in 10.0 mi Calm Calm - N/A   Overcast
6:53 PM 35.1 °F - 34.0 °F 96% 29.41 in 9.0 mi Calm Calm - N/A   Overcast
7:53 PM 36.0 °F - 35.1 °F 97% 29.40 in 10.0 mi Calm Calm - 0.00 in   Overcast
8:53 PM 36.0 °F 33.3 °F 35.1 °F 97% 29.40 in 10.0 mi NNE 3.5 mph - N/A   Overcast
9:53 PM 35.1 °F - 34.0 °F 96% 29.40 in 10.0 mi Calm Calm - N/A   Overcast
10:53 PM 34.0 °F 31.0 °F 33.1 °F 96% 29.39 in 7.0 mi NE 3.5 mph - N/A   Overcast
11:53 PM 35.1 °F - 34.0 °F 96% 29.38 in 10.0 mi Calm Calm - N/A   Overcast